• Em Portugal
  • Lista de países
  • Para 7 dias
  • Temperatura da água
  • Mapas de satélite
  • Mapa do tempo
  • Widgets de tempo
  • user-avatar
    Iniciar Sessão

    Previsão horária em Akaba

    Hoje, 23 Novembro, Quinta-feira

    Tempo Temperatura Precipitação Vento Pressão Humidade
    00:00 +15°C° 0 mm 2 m/s 753 mmHg 76%
    01:00 +14°C° 0 mm 2 m/s 753 mmHg 78%
    02:00 +14°C° 0 mm 2 m/s 753 mmHg 79%
    03:00 +14°C° 0 mm 1 m/s 753 mmHg 81%
    04:00 +13°C° 0 mm 1 m/s 753 mmHg 82%
    05:00 +13°C° 0 mm 1 m/s 753 mmHg 83%
    06:00 +14°C° 0 mm 1 m/s 753 mmHg 79%
    07:00 +14°C° 0 mm 1 m/s 753 mmHg 75%
    08:00 +15°C° 0 mm 1 m/s 753 mmHg 70%
    09:00 +16°C° 0 mm 1 m/s 753 mmHg 64%
    10:00 +17°C° 0 mm 2 m/s 753 mmHg 58%
    11:00 +18°C° 0 mm 2 m/s 753 mmHg 52%
    12:00 +19°C° 0 mm 2 m/s 752 mmHg 50%
    13:00 +20°C° 0 mm 3 m/s 752 mmHg 47%
    14:00 +20°C° 0 mm 3 m/s 752 mmHg 45%
    15:00 +20°C° 0 mm 3 m/s 752 mmHg 48%
    16:00 +19°C° 0 mm 3 m/s 752 mmHg 50%
    17:00 +19°C° 0 mm 3 m/s 752 mmHg 53%
    18:00 +18°C° 0 mm 3 m/s 752 mmHg 56%
    19:00 +17°C° 0 mm 3 m/s 752 mmHg 59%
    20:00 +17°C° 0 mm 2 m/s 753 mmHg 62%
    21:00 +16°C° 0 mm 2 m/s 753 mmHg 64%
    22:00 +16°C° 0 mm 2 m/s 753 mmHg 67%
    23:00 +15°C° 0 mm 2 m/s 753 mmHg 69%

    Amanhã, 24 Novembro, Sexta-feira

    Tempo Temperatura Precipitação Vento Pressão Humidade
    00:00 +15°C° 0 mm 2 m/s 753 mmHg 70%
    01:00 +15°C° 0 mm 1 m/s 753 mmHg 72%
    02:00 +14°C° 0 mm 1 m/s 753 mmHg 74%
    03:00 +14°C° 0 mm 1 m/s 753 mmHg 74%
    04:00 +14°C° 0 mm 2 m/s 753 mmHg 74%
    05:00 +13°C° 0 mm 2 m/s 753 mmHg 74%
    06:00 +14°C° 0 mm 2 m/s 753 mmHg 69%
    07:00 +15°C° 0 mm 2 m/s 754 mmHg 64%
    08:00 +16°C° 0 mm 2 m/s 754 mmHg 58%
    09:00 +18°C° 0 mm 2 m/s 754 mmHg 52%
    10:00 +19°C° 0 mm 2 m/s 754 mmHg 46%
    11:00 +20°C° 0 mm 3 m/s 754 mmHg 40%
    12:00 +21°C° 0 mm 3 m/s 753 mmHg 37%
    13:00 +22°C° 0 mm 3 m/s 753 mmHg 35%
    14:00 +22°C° 0 mm 3 m/s 752 mmHg 32%
    15:00 +22°C° 0 mm 3 m/s 752 mmHg 34%
    16:00 +21°C° 0 mm 3 m/s 752 mmHg 36%
    17:00 +20°C° 0 mm 3 m/s 752 mmHg 38%
    18:00 +20°C° 0 mm 3 m/s 753 mmHg 40%
    19:00 +19°C° 0 mm 3 m/s 753 mmHg 42%
    20:00 +18°C° 0 mm 2 m/s 753 mmHg 43%
    21:00 +18°C° 0 mm 2 m/s 753 mmHg 45%
    22:00 +18°C° 0 mm 2 m/s 753 mmHg 46%
    23:00 +17°C° 0 mm 2 m/s 753 mmHg 47%

    Depois de amanhã, 25 Novembro, Sábado

    Tempo Temperatura Precipitação Vento Pressão Humidade
    00:00 +17°C° 0 mm 2 m/s 753 mmHg 48%
    01:00 +16°C° 0 mm 2 m/s 753 mmHg 49%
    02:00 +16°C° 0 mm 1 m/s 753 mmHg 49%
    03:00 +16°C° 0 mm 2 m/s 753 mmHg 50%
    04:00 +16°C° 0 mm 2 m/s 752 mmHg 50%
    05:00 +15°C° 0 mm 2 m/s 752 mmHg 51%
    06:00 +16°C° 0 mm 2 m/s 752 mmHg 48%
    07:00 +17°C° 0 mm 2 m/s 753 mmHg 44%
    08:00 +18°C° 0 mm 2 m/s 753 mmHg 41%
    09:00 +20°C° 0 mm 2 m/s 752 mmHg 38%
    10:00 +21°C° 0 mm 2 m/s 752 mmHg 35%
    11:00 +24°C° 0 mm 2 m/s 752 mmHg 32%
    12:00 +24°C° 0 mm 2 m/s 751 mmHg 31%
    13:00 +25°C° 0 mm 2 m/s 750 mmHg 31%
    14:00 +25°C° 0 mm 1 m/s 750 mmHg 30%
    15:00 +24°C° 0 mm 1 m/s 750 mmHg 31%
    16:00 +23°C° 0 mm 1 m/s 750 mmHg 33%
    17:00 +22°C° 0 mm 1 m/s 750 mmHg 35%
    18:00 +21°C° 0 mm 1 m/s 750 mmHg 37%
    19:00 +21°C° 0 mm 1 m/s 750 mmHg 39%
    20:00 +20°C° 0 mm 1 m/s 751 mmHg 41%
    21:00 +20°C° 0 mm 1 m/s 751 mmHg 42%
    22:00 +19°C° 0 mm 1 m/s 751 mmHg 43%
    23:00 +19°C° 0 mm 1 m/s 751 mmHg 45%

    26 Novembro, Domingo

    Tempo Temperatura Precipitação Vento Pressão Humidade
    00:00 +17°C° 0 mm 2 m/s 751 mmHg 48%
    01:00 +17°C° 0 mm 2 m/s 751 mmHg 51%
    02:00 +17°C° 0 mm 2 m/s 750 mmHg 54%
    03:00 +16°C° 0 mm 2 m/s 750 mmHg 57%
    04:00 +16°C° 0 mm 2 m/s 751 mmHg 61%
    05:00 +16°C° 0 mm 2 m/s 751 mmHg 64%
    06:00 +16°C° 0 mm 2 m/s 751 mmHg 63%
    07:00 +17°C° 0 mm 2 m/s 752 mmHg 62%
    08:00 +18°C° 0 mm 2 m/s 752 mmHg 61%
    09:00 +19°C° 0 mm 2 m/s 752 mmHg 56%
    10:00 +20°C° 0 mm 2 m/s 752 mmHg 52%
    11:00 +21°C° 0 mm 3 m/s 752 mmHg 47%
    12:00 +21°C° 0 mm 3 m/s 751 mmHg 45%
    13:00 +22°C° 0 mm 3 m/s 751 mmHg 43%
    14:00 +22°C° 0 mm 3 m/s 751 mmHg 41%
    15:00 +22°C° 0 mm 3 m/s 751 mmHg 44%
    16:00 +21°C° 0 mm 3 m/s 751 mmHg 48%
    17:00 +20°C° 0 mm 3 m/s 751 mmHg 51%
    18:00 +19°C° 0 mm 2 m/s 752 mmHg 55%
    19:00 +19°C° 0 mm 2 m/s 752 mmHg 58%
    20:00 +18°C° 0 mm 2 m/s 753 mmHg 62%
    21:00 +18°C° 0 mm 2 m/s 753 mmHg 65%
    22:00 +18°C° 0 mm 1 m/s 753 mmHg 68%
    23:00 +18°C° 0 mm 1 m/s 753 mmHg 71%

    27 Novembro, Segunda-feira

    Tempo Temperatura Precipitação Vento Pressão Humidade
    00:00 +16°C° 0 mm 1 m/s 752 mmHg 74%
    01:00 +16°C° 0 mm 1 m/s 752 mmHg 76%
    02:00 +15°C° 0 mm 1 m/s 752 mmHg 78%
    03:00 +15°C° 0 mm 1 m/s 752 mmHg 79%
    04:00 +15°C° 0 mm 1 m/s 752 mmHg 80%
    05:00 +15°C° 0 mm 1 m/s 752 mmHg 81%
    06:00 +16°C° 0 mm 1 m/s 753 mmHg 76%
    07:00 +18°C° 0 mm 1 m/s 753 mmHg 71%
    08:00 +18°C° 0 mm 1 m/s 754 mmHg 67%
    09:00 +20°C° 0 mm 1 m/s 753 mmHg 61%
    10:00 +21°C° 0 mm 1 m/s 753 mmHg 55%
    11:00 +21°C° 0 mm 2 m/s 753 mmHg 49%
    12:00 +21°C° 0 mm 2 m/s 753 mmHg 46%
    13:00 +23°C° 0 mm 2 m/s 752 mmHg 43%
    14:00 +23°C° 0 mm 2 m/s 752 mmHg 41%
    15:00 +23°C° 0 mm 2 m/s 752 mmHg 43%
    16:00 +21°C° 0 mm 2 m/s 752 mmHg 45%
    17:00 +20°C° 0 mm 2 m/s 752 mmHg 47%
    18:00 +19°C° 0 mm 2 m/s 752 mmHg 50%
    19:00 +19°C° 0 mm 2 m/s 753 mmHg 52%
    20:00 +19°C° 0 mm 1 m/s 753 mmHg 54%
    21:00 +19°C° 0 mm 1 m/s 753 mmHg 56%
    22:00 +18°C° 0 mm 1 m/s 753 mmHg 58%
    23:00 +18°C° 0 mm 1 m/s 753 mmHg 60%

    28 Novembro, Terça-feira

    Tempo Temperatura Precipitação Vento Pressão Humidade
    00:00 +16°C° 0 mm 1 m/s 753 mmHg 61%
    01:00 +16°C° 0 mm 1 m/s 753 mmHg 63%
    02:00 +16°C° 0 mm 1 m/s 753 mmHg 64%
    03:00 +15°C° 0 mm 1 m/s 753 mmHg 65%
    04:00 +15°C° 0 mm 1 m/s 753 mmHg 67%
    05:00 +15°C° 0 mm 1 m/s 753 mmHg 68%
    06:00 +16°C° 0 mm 1 m/s 753 mmHg 63%
    07:00 +18°C° 0 mm 1 m/s 753 mmHg 58%
    08:00 +19°C° 0 mm 1 m/s 754 mmHg 53%
    09:00 +20°C° 0 mm 1 m/s 753 mmHg 48%
    10:00 +21°C° 0 mm 1 m/s 753 mmHg 44%
    11:00 +23°C° 0 mm 1 m/s 753 mmHg 39%
    12:00 +23°C° 0 mm 1 m/s 752 mmHg 37%
    13:00 +24°C° 0 mm 2 m/s 752 mmHg 35%
    14:00 +24°C° 0 mm 2 m/s 751 mmHg 33%
    15:00 +23°C° 0 mm 2 m/s 751 mmHg 35%
    16:00 +23°C° 0 mm 2 m/s 751 mmHg 38%
    17:00 +21°C° 0 mm 2 m/s 751 mmHg 40%
    18:00 +20°C° 0 mm 2 m/s 752 mmHg 42%
    19:00 +20°C° 0 mm 1 m/s 752 mmHg 44%
    20:00 +19°C° 0 mm 1 m/s 752 mmHg 46%
    21:00 +19°C° 0 mm 1 m/s 752 mmHg 48%
    22:00 +19°C° 0 mm 1 m/s 752 mmHg 49%
    23:00 +18°C° 0 mm 1 m/s 752 mmHg 51%
    Mostrar mais